Home   Weather   San Francisco   Past weeks
Flag for USA

Past Weather in San Francisco, California, USA — July 2015

Now
58 °F

Partly sunny.


Feels Like: 56 °F
Forecast: 64 / 53 °F
Wind: 10 mph from West

Location: San Francisco International Airport

Current Time: Oct 16, 2019 at 10:28:01 am

Latest Report: Oct 16, 2019 at 9:56 am


Visibility: 10 mi

Pressure: 30.03 "Hg

Humidity: 78%

Dew Point: 51 °F

Location of San FranciscoLocation

July 2015 Weather in San Francisco — Graph

°F

High & Low Weather Summary for July 2015

 TemperatureHumidityPressure
High87 °F (Jul 19, 2:56 pm)97% (Jul 4, 1:56 am)30.13 "Hg (Jul 4, 1:56 am)
Low56 °F (Jul 1, 2:56 am)30% (Jul 28, 1:56 pm)29.78 "Hg (Jul 17, 5:56 pm)
Average65 °F73%29.95 "Hg
* Reported Jul 1 12:56 am — Jul 31 11:56 pm, San Francisco. Weather by CustomWeather, © 2019

Note: Actual official high and low records may vary slightly from our data, if they occured in-between our weather recording intervals... More about our weather records

Advertising

San Francisco Weather History for July 1, 2015

Scroll right to see more
 ConditionsComfort  
Time TempWeatherWind HumidityBarometerVisibility
12:56 am
Wed, Jul 1
58 °FPassing clouds.12 mph87%29.86 "Hg10 mi
1:56 am57 °FPassing clouds.12 mph90%29.85 "Hg10 mi
2:56 am56 °FPassing clouds.13 mph93%29.84 "Hg10 mi
3:56 am56 °FPassing clouds.9 mph93%29.83 "Hg10 mi
4:56 am57 °FPassing clouds.8 mph90%29.82 "Hg10 mi
5:56 am56 °FPartly cloudy.7 mph93%29.84 "Hg10 mi
6:56 am58 °FScattered clouds.8 mph87%29.85 "Hg10 mi
7:56 am61 °FScattered clouds.6 mph81%29.86 "Hg10 mi
8:56 am65 °FPartly sunny.5 mph70%29.88 "Hg10 mi
9:56 am68 °FPartly sunny.7 mph65%29.90 "Hg10 mi
10:56 am70 °FPartly sunny.7 mph66%29.92 "Hg10 mi
11:56 am73 °FPartly sunny.13 mph55%29.92 "Hg10 mi
12:56 pm70 °FPartly sunny.15 mph59%29.92 "Hg10 mi
1:56 pm69 °FPartly sunny.16 mph61%29.91 "Hg10 mi
2:56 pm72 °FBroken clouds.20 mph57%29.91 "Hg10 mi
3:56 pm70 °FBroken clouds.16 mph61%29.90 "Hg10 mi
4:56 pm70 °FBroken clouds.16 mph61%29.89 "Hg10 mi
5:56 pm64 °FPartly sunny.26 mph75%29.87 "Hg10 mi
6:56 pm62 °FPartly sunny.18 mph80%29.86 "Hg10 mi
7:56 pm62 °FBroken clouds.15 mph80%29.88 "Hg10 mi
8:56 pm63 °FBroken clouds.14 mph78%29.88 "Hg10 mi
9:56 pm61 °FPartly cloudy.15 mph83%29.90 "Hg10 mi
10:56 pm61 °FPassing clouds.13 mph83%29.91 "Hg10 mi
11:56 pm61 °FPassing clouds.13 mph83%29.90 "Hg10 mi
Weather by CustomWeather, © 2019

See weather overview